Sitka, AK

12:07 AM AKDT on May 26, 2017 (GMT -0800)
Sitka Rocky Gutierrez

Weather History for PASI - March, 2014

Change the Weather History Date:

Wednesday, March 19, 2014

  Actual Average Record
Temperature  
Mean Temperature 37 °F -  
Max Temperature 42 °F 43 °F 54 °F (1998)
Min Temperature 32 °F 33 °F 21 °F (2002)
Degree Days  
Heating Degree Days 28    
Moisture  
Dew Point 33 °F    
Average Humidity 90    
Maximum Humidity 100    
Minimum Humidity 70    
Precipitation  
Precipitation 0.10 in - - ()
Sea Level Pressure  
Sea Level Pressure 29.93 in    
Wind  
Wind Speed 6 mph (ESE)    
Max Wind Speed 13 mph    
Max Gust Speed -    
Visibility 8 miles    
Events Rain , Snow    
Averages and records for this station are not official NWS values.
T = Trace of Precipitation, MM = Missing Value Source: NWS Daily Summary

Daily Weather History Graph

Daily Weather History Graph

Search for Another Location

Airport or City:

Trip Planner

Search our weather history database for the weather conditions in past years. The results will help you decide how hot, cold, wet, or windy it might be!

Date:

Astronomy

Mar. 19, 2014 Rise Set
Actual Time 7:05 AM AKDT 7:13 PM AKDT
Civil Twilight 6:27 AM AKDT 7:51 PM AKDT
Nautical Twilight 5:42 AM AKDT 8:37 PM AKDT
Astronomical Twilight 4:54 AM AKDT 9:26 PM AKDT
Moon 11:24 PM AKDT (3/19) 7:59 AM AKDT (3/19)
Length of Visible Light 13h 24m
Length of Day
12h 08m
Waning Gibbous, 90% of the Moon is Illuminated
Mar 19
Waning Gibbous
Mar 23
Last Quarter
Mar 30
New
Apr 7
First Quarter
Apr 14
Full

Hourly Weather History & Observations

Time (AKDT) Temp. Windchill Dew Point Humidity Pressure Visibility Wind Dir Wind Speed Gust Speed Precip Events Conditions
12:01 AM 36.0 °F 27.5 °F 33.1 °F 89% 29.82 in 7.0 mi WSW 12.7 mph - 0.01 in Rain Light Rain
12:53 AM 36.0 °F 33.3 °F 33.1 °F 89% 29.84 in 10.0 mi NNE 3.5 mph - 0.01 in   Overcast
1:09 AM 35.1 °F 32.2 °F 33.1 °F 92% 29.84 in 10.0 mi East 3.5 mph - 0.01 in Rain Light Rain
1:45 AM 35.1 °F 32.2 °F 33.1 °F 92% 29.85 in 5.0 mi ENE 3.5 mph - 0.02 in Snow Light Snow
1:53 AM 35.1 °F 31.0 °F 33.1 °F 92% 29.85 in 4.0 mi East 4.6 mph - 0.03 in Snow Light Snow
2:13 AM 35.1 °F 30.1 °F 33.1 °F 92% 29.85 in 10.0 mi East 5.8 mph - 0.00 in   Overcast
2:35 AM 35.1 °F 29.3 °F 33.1 °F 92% 29.86 in 10.0 mi ESE 6.9 mph - 0.00 in   Overcast
2:53 AM 35.1 °F 30.1 °F 33.1 °F 92% 29.86 in 10.0 mi East 5.8 mph - 0.00 in   Overcast
3:04 AM 35.1 °F 30.1 °F 33.1 °F 92% 29.86 in 10.0 mi ESE 5.8 mph - N/A   Mostly Cloudy
3:26 AM 35.1 °F 30.1 °F 33.1 °F 92% 29.86 in 10.0 mi East 5.8 mph - N/A   Mostly Cloudy
3:53 AM 35.1 °F 32.2 °F 33.1 °F 92% 29.87 in 7.0 mi ESE 3.5 mph - 0.00 in Rain Light Rain
4:08 AM 35.1 °F 30.1 °F 33.1 °F 92% 29.87 in 5.0 mi SE 5.8 mph - 0.02 in Snow Light Snow
4:51 AM 33.8 °F 27.0 °F 32.0 °F 93% 29.87 in 10.0 mi East 8.1 mph - 0.02 in   Mostly Cloudy
4:53 AM 34.0 °F 28.0 °F 32.0 °F 92% 29.88 in 10.0 mi East 6.9 mph - 0.02 in   Mostly Cloudy
5:53 AM 34.0 °F 29.8 °F 33.1 °F 96% 29.88 in 10.0 mi East 4.6 mph - N/A   Mostly Cloudy
6:42 AM 35.1 °F 29.3 °F 34.0 °F 96% 29.89 in 6.0 mi South 6.9 mph - 0.00 in Rain Light Rain
6:50 AM 35.6 °F 29.2 °F 33.8 °F 93% 29.89 in 4.0 mi South 8.1 mph - 0.01 in Snow Light Snow
6:53 AM 35.1 °F 29.3 °F 33.1 °F 92% 29.89 in 4.0 mi South 6.9 mph - 0.01 in Snow Light Snow
7:00 AM 35.1 °F 29.3 °F 33.1 °F 92% 29.89 in 5.0 mi SE 6.9 mph - 0.00 in Snow Light Snow
7:36 AM 34.0 °F 28.0 °F 32.0 °F 92% 29.90 in 9.0 mi ENE 6.9 mph - 0.00 in   Mostly Cloudy
7:51 AM 33.8 °F 27.7 °F 33.8 °F 100% 29.90 in 9.0 mi East 6.9 mph - 0.00 in   Mostly Cloudy
7:53 AM 34.0 °F 29.8 °F 33.1 °F 96% 29.90 in 9.0 mi East 4.6 mph - 0.00 in   Mostly Cloudy
8:02 AM 35.1 °F 32.2 °F 33.1 °F 92% 29.91 in 1.5 mi ESE 3.5 mph - 0.01 in Snow Light Snow
8:22 AM 34.0 °F 31.0 °F 32.0 °F 92% 29.91 in 2.5 mi ESE 3.5 mph - 0.03 in Snow Light Snow
8:42 AM 34.0 °F 28.0 °F 33.1 °F 96% 29.92 in 3.0 mi ESE 6.9 mph - 0.03 in Snow Light Snow
8:53 AM 34.0 °F 27.2 °F 33.1 °F 96% 29.92 in 3.0 mi ESE 8.1 mph - 0.03 in Snow Light Snow
9:17 AM 35.1 °F 29.3 °F 33.1 °F 92% 29.92 in 5.0 mi East 6.9 mph - 0.00 in Snow Light Snow
9:25 AM 34.0 °F 28.0 °F 33.1 °F 96% 29.92 in 6.0 mi East 6.9 mph - 0.00 in Snow Light Snow
9:53 AM 35.1 °F 27.9 °F 33.1 °F 92% 29.93 in 7.0 mi ESE 9.2 mph - 0.00 in Snow Light Snow
10:00 AM 35.1 °F 29.3 °F 33.1 °F 92% 29.93 in 7.0 mi ESE 6.9 mph - 0.00 in Snow Light Snow
10:38 AM 36.0 °F 30.3 °F 34.0 °F 93% 29.94 in 8.0 mi SE 6.9 mph - 0.00 in   Mostly Cloudy
10:53 AM 37.0 °F 31.6 °F 35.1 °F 93% 29.94 in 8.0 mi ESE 6.9 mph - 0.00 in   Mostly Cloudy
11:17 AM 36.0 °F 30.3 °F 34.0 °F 93% 29.95 in 10.0 mi SE 6.9 mph - N/A   Mostly Cloudy
11:53 AM 36.0 °F 32.1 °F 34.0 °F 93% 29.96 in 10.0 mi SE 4.6 mph - N/A   Mostly Cloudy
12:53 PM 37.9 °F 32.7 °F 34.0 °F 86% 29.97 in 10.0 mi SE 6.9 mph - N/A   Scattered Clouds
1:53 PM 39.0 °F 35.7 °F 33.1 °F 79% 29.97 in 10.0 mi SE 4.6 mph - N/A   Scattered Clouds
2:53 PM 42.1 °F - 35.1 °F 76% 29.98 in 10.0 mi Calm Calm - N/A   Scattered Clouds
3:53 PM 41.0 °F - 32.0 °F 70% 29.99 in 10.0 mi Calm Calm - N/A   Scattered Clouds
4:53 PM 39.9 °F 37.8 °F 32.0 °F 73% 30.00 in 10.0 mi SW 3.5 mph - N/A   Scattered Clouds
5:53 PM 39.9 °F - 32.0 °F 73% 30.01 in 10.0 mi Calm Calm - N/A   Scattered Clouds
6:53 PM 39.0 °F - 33.1 °F 79% 30.02 in 10.0 mi Calm Calm - N/A   Scattered Clouds
7:00 PM 37.9 °F - 33.1 °F 83% 30.02 in 10.0 mi Calm Calm - N/A   Mostly Cloudy
7:25 PM 37.9 °F 35.5 °F 32.0 °F 79% 30.03 in 10.0 mi ESE 3.5 mph - N/A   Scattered Clouds
7:53 PM 37.0 °F 34.5 °F 33.1 °F 86% 30.04 in 10.0 mi East 3.5 mph - N/A   Scattered Clouds
8:53 PM 34.0 °F 31.0 °F 32.0 °F 92% 30.05 in 10.0 mi East 3.5 mph - N/A   Clear
9:53 PM 34.0 °F 29.8 °F 30.9 °F 89% 30.07 in 10.0 mi ESE 4.6 mph - N/A   Clear
10:53 PM 32.0 °F - 30.0 °F 92% 30.08 in 10.0 mi Calm Calm - N/A   Clear
11:53 PM 32.0 °F - 30.0 °F 92% 30.10 in 10.0 mi Calm Calm - N/A   Clear